Wind_Speed
22 23 23 23 23 22 23 24 24 24 24 25 25 24 23 23 23 23 23 23 23 23 24 24 24 24 24 25 24 24 25 25 25 25 25 25 25 25 25 25 25 26 26
23 22 23 23 23 23 23 24 24 25 25 25 25 25 24 23 23 24 24 24 24 24 24 25 25 25 25 25 26 26 27 26 27 27 27 27 27 27 27 27 27 27 28
23 23 23 23 23 23 24 24 25 25 26 26 25 26 26 25 24 24 25 25 25 25 25 25 26 26 26 26 26 27 28 28 27 28 27 28 28 28 28 29 29 28 28
22 22 22 22 22 22 24 24 25 26 26 26 26 26 25 25 25 25 25 25 26 26 26 26 27 27 27 28 28 28 28 28 28 28 29 29 30 30 30 30 30 30 30
22 22 22 23 24 24 24 25 25 25 26 26 25 25 25 25 24 24 25 25 26 27 27 27 27 28 28 28 29 29 29 29 30 30 30 30 31 31 31 31 31 31 31
23 23 23 24 24 23 24 24 24 25 25 25 25 25 25 25 25 25 25 26 27 27 27 28 29 29 29 30 30 29 29 30 31 31 31 31 31 31 32 32 33 33 32
23 23 23 24 24 24 24 24 24 25 25 25 24 24 25 26 25 25 26 27 27 27 28 28 28 29 30 30 30 30 30 31 31 31 32 32 33 33 33 33 33 34 34
23 23 23 23 23 24 24 24 25 25 24 24 23 24 25 25 25 26 26 26 26 27 27 27 27 29 30 30 31 31 32 32 32 32 33 34 34 35 34 34 34 35 35
22 23 23 24 23 23 23 24 24 24 24 24 24 24 24 25 25 26 26 27 27 27 28 28 28 28 29 30 31 31 32 33 34 34 34 35 35 35 35 36 36 36 36
21 22 23 23 23 23 23 23 24 25 25 24 24 24 24 25 25 26 27 28 29 29 29 29 29 29 30 31 32 32 33 34 36 36 36 36 36 36 36 37 37 37 37
20 21 22 22 22 22 22 22 22 23 23 24 23 23 24 25 26 27 28 29 30 30 30 30 31 31 32 33 34 34 36 36 37 37 37 37 37 37 37 37 38 38 38
21 20 20 21 22 22 22 22 22 22 22 23 24 24 25 25 26 28 29 30 30 30 31 32 33 33 34 35 36 37 38 38 38 38 38 38 38 38 38 38 39 39 39
20 20 20 21 21 22 22 22 22 23 23 24 24 24 24 26 27 29 30 31 30 31 32 34 34 34 35 35 37 38 39 39 40 39 39 40 41 40 40 39 39 40 40
19 19 19 20 20 20 20 22 22 24 24 25 25 25 25 27 27 29 30 31 31 31 33 34 34 35 36 36 37 38 38 39 40 40 40 41 41 41 40 41 41 40 40
17 17 18 19 19 19 20 21 23 23 24 24 26 26 27 28 28 29 30 31 31 31 32 33 34 36 37 37 38 38 39 40 41 41 41 41 41 42 42 42 43 42 42
17 17 18 19 20 19 19 20 21 22 23 24 25 27 27 27 28 29 29 30 30 31 32 33 34 36 37 38 38 38 39 40 40 41 40 41 42 43 43 43 43 43 44
17 17 17 18 19 19 20 20 21 22 23 24 25 26 27 27 28 28 29 30 31 32 32 33 34 35 36 37 37 38 38 38 39 39 39 40 41 42 43 44 45 44 45
17 17 17 18 19 19 20 21 22 23 24 24 25 26 27 27 28 28 29 30 31 32 33 33 33 34 34 35 35 35 35 35 36 37 38 39 40 41 42 43 44 45 45
17 17 17 18 18 20 21 21 22 23 24 24 25 25 26 28 28 28 29 30 31 33 33 33 33 34 34 34 34 34 34 34 34 35 36 37 38 40 41 42 43 44 44
17 18 18 18 19 20 21 21 22 23 24 25 25 26 27 27 28 28 29 31 32 33 33 33 32 33 33 33 33 33 32 33 33 34 35 36 38 39 40 41 41 43 43
18 18 18 18 19 20 21 21 22 24 25 26 26 27 27 28 28 30 31 31 32 32 32 32 32 31 31 31 32 32 33 32 32 33 34 35 36 37 38 39 41 42 42
17 17 17 17 18 19 20 22 23 25 26 26 26 27 27 28 29 30 30 30 31 31 32 32 31 31 30 29 28 29 30 30 30 31 31 32 33 34 36 36 38 39 41
16 16 16 17 18 19 21 23 25 26 26 26 27 27 28 28 29 29 29 29 30 30 30 30 30 29 28 27 26 26 25 25 26 27 28 29 30 32 33 34 35 36 37
16 16 16 18 19 20 22 23 25 26 26 26 26 27 27 27 28 28 28 28 28 27 28 28 28 27 26 25 25 23 22 22 21 22 23 23 26 28 30 32 33 34 35
16 16 17 18 20 21 23 25 26 26 26 27 27 26 26 26 27 27 26 25 25 25 26 26 26 26 25 24 23 22 21 20 20 21 21 21 22 24 26 28 30 32 34
16 16 18 20 21 23 24 26 27 27 27 27 26 26 26 26 26 26 24 24 23 24 25 25 25 25 25 24 23 22 21 21 21 20 20 20 21 22 23 25 27 30 31
Wind_Direction
282 284 284 284 282 283 283 282 282 280 281 281 280 280 280 280 278 276 275 274 272 272 272 269 268 268 268 266 264 263 262 258 257 255 255 254 253 250 250 249 248 246 245
283 285 286 282 281 282 282 282 281 279 281 281 279 278 278 278 276 275 274 273 272 271 271 272 272 270 269 268 266 264 262 260 258 256 256 255 253 251 250 249 248 247 246
286 289 287 285 281 281 282 283 282 281 280 280 280 278 278 277 277 276 276 272 270 270 271 272 271 269 268 268 268 265 263 260 259 257 256 255 253 252 251 250 248 247 246
285 287 288 288 285 282 282 283 282 281 281 281 280 277 278 277 276 276 276 275 272 271 272 272 271 269 268 268 268 266 263 261 260 259 257 255 254 253 252 251 249 247 246
285 284 284 286 286 285 286 286 284 282 281 281 281 276 276 277 276 276 277 277 275 273 273 272 271 270 269 269 269 267 264 262 261 261 259 256 254 253 252 251 250 248 247
283 283 284 285 285 285 286 286 286 284 282 282 280 277 276 277 277 276 278 277 276 274 274 273 271 271 270 270 268 266 265 264 263 262 260 258 256 254 253 251 250 249 248
281 283 285 284 285 284 285 286 288 287 283 282 281 280 279 279 280 278 277 278 278 277 276 275 272 270 270 270 267 266 265 264 263 262 260 259 257 254 252 251 250 248 247
283 284 285 283 285 286 288 290 291 289 285 283 283 283 282 280 279 280 281 281 280 280 280 277 274 271 270 269 268 266 264 264 263 263 262 260 258 255 253 251 250 249 247
283 283 283 283 285 287 288 289 290 288 287 285 285 283 281 280 280 281 282 280 279 278 277 276 274 273 273 271 269 268 267 265 264 263 262 260 258 256 254 252 251 249 247
284 283 283 283 284 285 288 289 290 289 289 288 286 284 283 282 280 280 281 281 281 280 279 278 276 274 274 273 271 270 269 267 265 264 262 260 257 255 254 252 251 249 246
284 284 284 284 285 286 288 289 289 290 290 292 289 288 286 285 284 283 282 281 281 281 280 279 277 275 275 274 273 271 269 267 266 264 262 259 257 255 253 252 251 248 246
285 285 286 286 286 286 287 290 290 292 295 294 291 289 288 288 287 286 284 282 281 280 280 278 277 275 274 273 272 271 270 269 266 264 261 258 257 255 253 252 250 248 247
288 285 288 291 290 288 288 289 289 291 295 296 295 291 291 290 288 288 288 286 282 281 281 280 278 277 275 274 273 272 271 270 267 264 261 259 257 255 252 251 250 249 247
294 294 292 293 292 291 293 292 292 295 297 298 298 296 294 293 290 289 289 288 285 284 283 281 280 280 277 276 275 273 271 270 268 265 262 259 256 254 252 250 249 249 248
298 298 295 295 295 296 299 299 298 299 299 300 300 300 297 295 295 293 291 290 289 286 285 284 283 283 281 279 276 274 272 270 268 266 263 259 256 254 252 250 249 248 247
301 299 297 297 300 303 304 305 304 303 302 301 302 302 300 299 299 299 297 294 293 291 288 286 285 285 284 281 278 275 272 270 268 264 261 258 256 254 252 250 248 247 246
306 302 304 304 304 306 306 306 307 306 306 305 304 304 304 303 303 301 300 299 296 295 294 291 288 287 286 283 280 276 273 269 267 263 260 259 257 254 252 251 249 248 246
312 310 309 311 310 310 310 308 309 309 309 308 307 307 308 307 305 303 302 302 302 300 297 294 292 290 288 284 281 277 275 271 268 263 261 259 256 254 252 251 249 247 247
316 314 312 313 314 316 316 314 314 313 312 311 311 311 310 309 306 303 303 303 304 304 303 300 295 292 289 285 281 278 275 272 269 265 261 259 256 253 252 250 249 246 246
318 315 315 316 315 317 318 317 317 317 315 313 313 313 312 310 308 306 305 304 306 306 305 306 302 296 291 286 282 278 275 273 270 267 264 260 257 256 253 251 249 246 245
321 319 319 318 318 318 319 319 319 320 319 316 315 314 313 312 310 310 308 307 307 308 308 308 307 304 297 291 286 280 277 274 271 269 266 262 259 257 255 253 251 248 246
324 324 323 322 322 324 324 325 324 322 321 319 317 316 315 314 313 312 311 310 309 310 311 311 310 308 304 299 293 287 281 275 272 270 267 264 261 258 256 253 251 250 248
327 328 328 328 329 329 328 328 328 326 324 322 319 318 317 318 317 316 314 313 313 313 314 314 314 312 309 305 301 295 290 282 277 273 269 267 263 260 256 252 250 249 248
331 330 331 333 333 332 332 331 331 330 328 326 324 323 322 322 321 320 319 319 319 318 318 319 318 317 313 310 306 301 295 288 283 279 274 271 265 262 258 254 251 248 246
334 334 334 334 334 334 334 332 332 330 330 330 329 327 326 326 326 325 323 324 323 323 323 323 323 322 319 315 310 305 299 293 287 282 278 274 270 267 262 257 253 250 249
334 335 335 335 335 336 335 335 335 335 334 334 334 333 331 331 331 330 329 328 327 327 326 327 327 326 324 319 315 310 305 298 289 284 280 276 272 269 265 260 257 253 251
Height
5839 5838 5837 5836 5836 5835 5834 5833 5833 5832 5831 5831 5830 5830 5829 5828 5827 5827 5827 5827 5827 5827 5827 5827 5827 5827 5828 5828 5828 5829 5829 5830 5831 5832 5833 5835 5836 5838 5840 5842 5843 5845 5847
5834 5833 5832 5831 5830 5829 5829 5828 5827 5827 5826 5825 5825 5824 5824 5823 5822 5821 5821 5821 5821 5821 5821 5821 5821 5821 5822 5822 5822 5823 5823 5824 5825 5826 5827 5828 5830 5832 5833 5835 5837 5839 5841
5829 5828 5827 5826 5825 5824 5823 5822 5821 5821 5820 5819 5819 5818 5818 5817 5817 5816 5815 5815 5815 5815 5815 5815 5815 5815 5815 5816 5816 5816 5816 5817 5818 5819 5820 5822 5823 5825 5827 5828 5831 5833 5835
5824 5823 5822 5821 5819 5818 5817 5816 5816 5815 5814 5813 5812 5812 5811 5811 5810 5810 5809 5808 5808 5808 5808 5808 5808 5808 5808 5809 5809 5809 5809 5810 5811 5812 5813 5814 5816 5818 5820 5821 5823 5825 5828
5819 5818 5817 5816 5815 5813 5812 5811 5810 5809 5808 5807 5806 5805 5805 5804 5804 5803 5803 5802 5802 5801 5801 5801 5801 5801 5801 5801 5802 5802 5802 5803 5804 5805 5806 5807 5808 5810 5812 5814 5816 5818 5820
5814 5813 5812 5810 5809 5808 5807 5806 5804 5803 5802 5801 5800 5799 5799 5798 5798 5797 5797 5796 5795 5794 5794 5794 5794 5794 5794 5794 5794 5794 5795 5795 5796 5797 5798 5799 5800 5802 5803 5805 5808 5810 5812
5808 5807 5806 5805 5804 5803 5802 5800 5799 5798 5796 5794 5794 5793 5792 5792 5791 5791 5790 5789 5788 5787 5787 5786 5786 5786 5786 5786 5786 5786 5787 5787 5788 5788 5789 5791 5792 5793 5795 5797 5799 5801 5804
5802 5801 5801 5800 5799 5798 5796 5795 5793 5791 5790 5788 5788 5787 5786 5786 5785 5784 5783 5782 5781 5780 5780 5779 5778 5777 5777 5777 5778 5778 5778 5778 5779 5780 5780 5782 5783 5784 5786 5788 5790 5792 5795
5797 5796 5795 5794 5793 5792 5791 5789 5787 5786 5785 5783 5782 5781 5780 5780 5778 5778 5776 5775 5774 5773 5772 5771 5770 5769 5769 5768 5768 5769 5769 5769 5769 5770 5770 5771 5773 5774 5776 5778 5780 5783 5786
5792 5791 5790 5789 5788 5786 5785 5784 5782 5780 5779 5777 5776 5775 5774 5773 5772 5771 5769 5767 5766 5765 5764 5763 5762 5761 5760 5759 5759 5759 5759 5759 5759 5759 5760 5761 5762 5764 5766 5768 5771 5773 5775
5787 5785 5784 5783 5782 5780 5780 5778 5776 5775 5773 5772 5770 5769 5767 5766 5765 5764 5762 5760 5758 5757 5755 5754 5753 5751 5751 5750 5749 5748 5748 5748 5748 5748 5749 5750 5752 5754 5755 5757 5760 5762 5765
5781 5780 5779 5778 5776 5775 5774 5773 5771 5769 5768 5766 5764 5762 5760 5759 5757 5755 5754 5752 5750 5748 5746 5744 5743 5742 5740 5739 5738 5737 5736 5736 5736 5736 5737 5738 5740 5742 5744 5746 5749 5751 5754
5776 5775 5774 5772 5770 5769 5768 5766 5765 5763 5761 5759 5757 5755 5753 5751 5749 5747 5745 5743 5741 5739 5737 5734 5732 5731 5729 5727 5726 5725 5724 5723 5723 5723 5724 5726 5728 5730 5732 5734 5737 5739 5742
5771 5769 5768 5766 5765 5763 5761 5760 5758 5757 5754 5752 5750 5747 5745 5743 5740 5738 5735 5733 5731 5729 5727 5724 5722 5719 5718 5716 5714 5712 5711 5710 5710 5710 5711 5712 5714 5717 5719 5722 5725 5727 5731
5766 5764 5762 5761 5759 5757 5756 5754 5751 5750 5747 5745 5743 5740 5737 5735 5732 5728 5726 5723 5721 5719 5717 5714 5711 5708 5706 5703 5701 5700 5698 5697 5697 5697 5698 5699 5701 5703 5706 5709 5712 5716 5719
5761 5759 5758 5756 5754 5752 5750 5748 5746 5743 5741 5738 5736 5733 5730 5727 5723 5720 5717 5714 5711 5708 5706 5703 5700 5697 5693 5691 5688 5686 5685 5684 5683 5683 5684 5686 5688 5690 5693 5696 5699 5703 5706
5757 5755 5753 5751 5749 5747 5745 5742 5740 5738 5735 5732 5729 5726 5722 5719 5715 5712 5708 5705 5701 5698 5694 5692 5688 5684 5681 5678 5675 5673 5671 5670 5670 5670 5671 5673 5675 5677 5680 5683 5686 5690 5694
5753 5751 5749 5747 5744 5742 5739 5737 5734 5732 5729 5726 5722 5719 5715 5711 5707 5704 5700 5696 5692 5688 5685 5681 5677 5673 5669 5666 5663 5660 5659 5658 5658 5658 5658 5660 5661 5664 5666 5669 5673 5677 5681
5749 5747 5745 5742 5740 5737 5735 5732 5729 5726 5723 5719 5715 5712 5708 5704 5700 5696 5692 5688 5684 5679 5674 5670 5666 5662 5658 5654 5651 5649 5648 5646 5646 5646 5646 5647 5648 5650 5653 5656 5660 5663 5668
5746 5743 5741 5738 5736 5733 5730 5727 5724 5720 5717 5713 5709 5705 5701 5697 5692 5688 5684 5680 5675 5670 5665 5660 5655 5651 5647 5643 5640 5638 5637 5635 5634 5634 5634 5635 5636 5638 5640 5643 5647 5650 5654
5743 5740 5737 5735 5732 5730 5726 5723 5719 5715 5711 5707 5702 5698 5694 5690 5685 5680 5676 5671 5666 5661 5656 5651 5646 5641 5636 5633 5630 5627 5626 5624 5623 5623 5623 5623 5624 5626 5627 5630 5633 5637 5641
5740 5737 5735 5732 5729 5726 5722 5718 5714 5710 5705 5701 5696 5692 5687 5683 5678 5672 5667 5663 5658 5653 5648 5642 5637 5632 5627 5623 5620 5617 5615 5614 5613 5612 5611 5612 5612 5614 5615 5618 5621 5624 5628
5738 5735 5732 5729 5725 5722 5718 5714 5710 5705 5700 5695 5690 5686 5681 5676 5671 5665 5660 5655 5650 5644 5640 5634 5629 5624 5620 5616 5612 5609 5606 5604 5603 5602 5602 5602 5602 5602 5604 5606 5609 5613 5617
5736 5733 5729 5726 5723 5719 5715 5710 5705 5700 5695 5690 5685 5680 5675 5669 5664 5659 5654 5648 5643 5637 5633 5628 5623 5618 5613 5609 5605 5602 5599 5597 5595 5594 5593 5593 5592 5593 5594 5596 5599 5602 5606
5733 5730 5727 5724 5720 5716 5712 5707 5702 5696 5691 5685 5680 5675 5669 5664 5659 5653 5648 5643 5638 5632 5627 5622 5617 5612 5607 5603 5599 5595 5593 5590 5588 5587 5586 5585 5585 5585 5586 5587 5589 5592 5595
5731 5728 5725 5722 5718 5714 5709 5704 5698 5693 5687 5681 5675 5670 5664 5659 5653 5648 5643 5638 5633 5628 5623 5618 5612 5607 5602 5597 5593 5590 5587 5584 5581 5580 5579 5578 5578 5578 5579 5579 5580 5582 5585